Humidity-temperature Sensor

Selected Measurement Type: Air Temperature

 
Air Temperature [°C]     6 entries per hour
Showing data from 4/10/2016 (00:00:00 Z) to 4/7/2016 (00:01:00 Z)
Previous Next [ Day | 3-Days | 7-Days ]
First Last
Prev [ Day | 3-Days | 7-Days ] Next
First Last

Start Time:     :
End Time:     :     
Time (in GMT) :00 :50 :40 :30 :20 :10
Previous Next [ Day | 3-Days | 7-Days ]
First Last
Prev [ Day | 3-Days | 7-Days ] Next
First Last


123 => good data
MM => data is determined as missing
-- => data not received/configured
Back to Top Back to Top
4/10/2016 00:00 to 23:10 28.43 28.47 28.32 28.41 28.36 28.45
4/9/2016 23:00 to 22:10 28.39 28.31 28.35 28.27 28.19 28.32
4/9/2016 22:00 to 21:10 28.32 28.50 28.42 28.55 28.48 28.57
4/9/2016 21:00 to 20:10 28.51 28.63 28.41 28.43 28.37 28.33
4/9/2016 20:00 to 19:10 28.49 28.43 28.36 28.41 28.33 28.37
4/9/2016 19:00 to 18:10 28.45 28.49 28.39 28.47 28.44 28.23
4/9/2016 18:00 to 17:10 28.20 28.21 28.17 28.16 28.27 28.26
4/9/2016 17:00 to 16:10 28.15 28.07 28.01 27.89 27.75 27.56
4/9/2016 16:00 to 15:10 27.50 27.46 27.44 27.50 27.46 27.37
4/9/2016 15:00 to 14:10 27.32 27.43 27.24 26.73 26.50 26.64
4/9/2016 14:00 to 13:10 26.74 27.11 27.10 27.14 27.13 27.09
4/9/2016 13:00 to 12:10 27.10 27.05 27.02 27.05 27.00 27.00
4/9/2016 12:00 to 11:10 27.08 27.21 27.24 27.24 27.32 27.33
4/9/2016 11:00 to 10:10 27.19 27.17 27.17 27.09 27.14 27.22
4/9/2016 10:00 to 9:10 26.96 27.03 27.06 27.01 27.35 27.22
4/9/2016 09:00 to 8:10 27.07 26.97 27.02 27.07 27.11 27.18
4/9/2016 08:00 to 7:10 27.42 27.35 27.00 27.14 27.37 28.20
4/9/2016 07:00 to 6:10 28.03 28.08 28.12 28.20 28.19 28.21
4/9/2016 06:00 to 5:10 28.12 28.08 28.03 28.04 28.00 27.93
4/9/2016 05:00 to 4:10 27.84 28.00 27.88 27.92 27.89 27.91
4/9/2016 04:00 to 3:10 27.62 27.46 27.36 27.24 27.26 27.84
4/9/2016 03:00 to 2:10 27.69 28.21 28.17 28.20 28.24 28.23
4/9/2016 02:00 to 1:10 28.25 28.24 28.28 28.25 28.23 28.26
4/9/2016 01:00 to 0:10 28.37 28.28 28.34 28.27 28.40 28.35
4/9/2016 00:00 to 23:10 28.27 28.32 28.35 28.35 28.33 28.45
4/8/2016 23:00 to 22:10 28.33 28.28 28.23 28.30 28.25 28.41
4/8/2016 22:00 to 21:10 28.55 28.48 28.48 28.30 28.26 28.39
4/8/2016 21:00 to 20:10 28.17 28.34 28.23 28.19 28.19 28.06
4/8/2016 20:00 to 19:10 28.28 28.18 28.31 28.16 28.21 28.12
4/8/2016 19:00 to 18:10 28.28 28.14 28.20 28.04 28.11 28.05
4/8/2016 18:00 to 17:10 28.07 28.04 28.06 28.13 27.99 28.20
4/8/2016 17:00 to 16:10 28.11 28.10 28.04 28.18 28.07 28.00
4/8/2016 16:00 to 15:10 28.01 27.84 27.82 27.99 28.05 28.19
4/8/2016 15:00 to 14:10 27.96 28.02 28.09 27.93 27.78 27.72
4/8/2016 14:00 to 13:10 27.61 27.72 27.66 27.59 27.50 27.59
4/8/2016 13:00 to 12:10 27.53 27.52 27.58 27.54 27.43 27.59
4/8/2016 12:00 to 11:10 27.55 27.60 27.52 27.51 27.53 27.50
4/8/2016 11:00 to 10:10 27.48 27.49 27.53 27.51 27.50 27.57
4/8/2016 10:00 to 9:10 27.60 27.52 27.42 27.59 27.56 27.36
4/8/2016 09:00 to 8:10 27.38 27.39 27.56 27.58 27.66 27.80
4/8/2016 08:00 to 7:10 27.72 27.73 27.84 27.77 27.84 27.85
4/8/2016 07:00 to 6:10 27.92 27.90 27.94 27.89 27.97 27.87
4/8/2016 06:00 to 5:10 27.91 27.83 27.77 27.79 27.70 27.64
4/8/2016 05:00 to 4:10 27.74 27.81 27.81 27.88 27.82 27.89
4/8/2016 04:00 to 3:10 27.88 27.87 27.92 27.86 27.87 27.79
4/8/2016 03:00 to 2:10 27.81 27.90 27.74 27.72 27.76 27.77
4/8/2016 02:00 to 1:10 27.86 27.73 27.80 27.79 27.82 27.87
4/8/2016 01:00 to 0:10 27.86 27.86 27.83 27.85 27.87 28.12
4/8/2016 00:00 to 23:10 28.20 28.24 28.21 28.25 28.35 28.24
4/7/2016 23:00 to 22:10 28.41 28.38 28.28 28.50 28.49 28.51
4/7/2016 22:00 to 21:10 28.49 28.41 28.43 28.48 28.58 28.43
4/7/2016 21:00 to 20:10 28.35 28.31 28.28 28.26 28.24 28.31
4/7/2016 20:00 to 19:10 28.26 28.11 28.05 28.09 28.15 28.20
4/7/2016 19:00 to 18:10 27.97 27.97 27.95 27.89 27.91 27.96
4/7/2016 18:00 to 17:10 28.33 28.10 28.02 28.03 27.96 28.05
4/7/2016 17:00 to 16:10 27.75 27.79 27.77 27.88 27.84 27.48
4/7/2016 16:00 to 15:10 27.99 27.85 27.55 27.73 27.51 27.46
4/7/2016 15:00 to 14:10 27.64 27.62 27.55 27.47 27.62 27.66
4/7/2016 14:00 to 13:10 27.79 27.81 27.75 27.58 27.54 27.56
4/7/2016 13:00 to 12:10 27.50 27.55 27.74 27.54 27.62 27.58
4/7/2016 12:00 to 11:10 27.56 27.53 27.60 27.59 27.59 27.59
4/7/2016 11:00 to 10:10 27.72 27.75 27.72 27.65 27.59 27.70
4/7/2016 10:00 to 9:10 27.57 27.62 27.74 27.62 27.64 27.72
4/7/2016 09:00 to 8:10 27.76 27.71 27.76 27.77 27.78 27.75
4/7/2016 08:00 to 7:10 27.87 27.96 27.83 27.90 27.84 27.86
4/7/2016 07:00 to 6:10 27.87 27.85 27.82 27.92 28.02 28.08
4/7/2016 06:00 to 5:10 28.08 28.12 28.11 28.11 27.97 28.18
4/7/2016 05:00 to 4:10 28.22 28.03 28.03 28.01 28.09 28.11
4/7/2016 04:00 to 3:10 28.09 28.16 28.22 28.12 28.10 28.24
4/7/2016 03:00 to 2:10 28.24 28.20 28.12 28.28 28.14 28.15
4/7/2016 02:00 to 1:10 28.22 28.16 28.18 28.16 28.28 28.40
4/7/2016 01:00 to 0:10 28.42 28.54 28.58 28.58 28.42 28.82